Date,TemperatureHighF,TemperatureAvgF,TemperatureLowF,DewpointHighF,DewpointAvgF,DewpointLowF,HumidityHigh,HumidityAvg,HumidityLow,PressureMaxIn,PressureMinIn,WindSpeedMaxMPH,WindSpeedAvgMPH,GustSpeedMaxMPH,PrecipitationSumIn
2013-1-1,50,48,44,50,43,32,100,85,56,29.98,29.81,8,2,8,0.30
2013-1-2,53,48,44,50,47,-1,100,95,75,30.03,29.77,7,1,7,0.12
2013-1-3,46,41,29,43,40,29,100,96,87,30.14,29.97,5,1,5,0.00
2013-1-4,53,38,24,40,29,23,100,73,43,30.20,30.06,8,1,8,0.00
2013-1-5,52,44,24,35,31,22,100,62,42,30.25,30.08,7,1,7,0.00
2013-1-6,57,46,41,45,39,33,100,77,61,30.10,29.91,11,2,11,0.00
2013-1-7,54,40,28,40,32,28,100,76,48,30.29,30.06,8,1,8,0.00
2013-1-8,55,41,27,44,37,27,100,86,64,30.32,30.21,4,0,4,0.00
2013-1-9,69,52,37,58,48,37,100,91,67,30.31,30.23,8,1,8,0.00
2013-1-10,72,57,47,58,50,43,100,81,56,30.37,30.23,7,1,7,0.00
2013-1-11,54,49,47,52,49,47,100,99,83,30.24,30.02,8,1,8,0.06
2013-1-12,73,59,48,70,59,-11,100,99,89,30.04,29.96,6,1,6,0.01
2013-1-13,74,65,55,70,63,55,100,95,80,30.01,29.92,54,2,54,0.00
2013-1-14,66,63,60,66,63,60,100,100,100,30.00,29.93,11,2,11,0.11
2013-1-15,62,48,42,62,48,42,100,100,100,30.03,29.92,9,2,9,0.09
2013-1-16,50,46,42,50,46,42,100,100,100,29.94,29.83,4,1,4,0.17
2013-1-17,51,46,34,51,46,34,100,100,100,30.05,29.66,15,3,15,1.62
2013-1-18,50,35,28,41,32,28,100,89,48,30.37,30.03,5,1,5,0.00
2013-1-19,57,40,24,38,31,24,100,74,40,30.35,30.02,11,2,11,0.00
2013-1-20,66,48,33,43,36,30,91,64,41,30.02,29.88,8,1,8,0.00
2013-1-21,62,44,29,43,34,29,100,73,39,29.95,29.77,12,2,12,0.00
2013-1-25,27,26,25,27,26,23,100,98,90,30.04,29.96,0,0,0,0.00
2013-1-26,49,34,25,40,31,25,100,92,64,30.22,29.94,6,0,6,0.01
2013-1-27,47,36,24,34,30,23,100,78,58,30.43,30.22,8,2,8,0.00
2013-1-28,50,43,35,50,40,31,100,89,72,30.33,30.10,8,2,8,0.01
2013-1-29,76,60,46,65,56,46,100,90,69,30.11,29.90,12,2,12,0.00
2013-1-30,76,67,53,70,65,53,100,95,74,29.91,29.30,23,9,23,0.51
2013-1-31,53,45,14,53,33,14,100,65,41,29.89,29.39,17,5,17,0.00
2013-2-1,41,36,23,31,18,9,71,48,29,30.23,29.76,18,5,18,0.00
2013-2-2,47,35,21,38,20,12,86,57,33,30.24,29.89,14,3,14,0.00
2013-2-3,55,44,35,38,33,26,99,67,45,29.89,29.71,14,4,14,0.00
2013-2-4,53,40,27,32,27,22,85,62,41,30.00,29.86,8,2,8,0.00
2013-2-5,66,49,38,47,37,30,85,65,46,29.86,29.74,11,2,11,0.00
2013-2-6,66,48,30,50,35,18,100,66,33,30.09,29.84,9,1,9,0.00
2013-2-7,46,40,37,42,36,15,100,85,65,30.15,29.85,8,2,8,0.56
2013-2-8,62,47,26,53,41,4,100,81,38,29.97,29.72,15,4,15,0.02
2013-2-9,58,43,29,38,28,-16,95,59,17,30.20,29.96,8,2,10,0.00
2013-2-10,58,44,17,49,32,14,100,67,18,30.30,30.02,12,2,12,0.43
2013-2-11,59,54,46,59,54,46,100,100,100,30.02,29.82,14,3,14,0.20
2013-2-12,62,52,42,52,44,32,100,77,41,29.97,29.76,5,1,5,0.01
2013-2-13,48,46,20,48,45,20,100,99,84,29.81,29.52,8,1,8,0.05
2013-2-14,54,41,29,43,36,29,100,83,54,29.93,29.73,9,1,9,0.00
2013-2-15,64,47,29,48,38,29,100,73,40,29.96,29.79,16,2,16,0.00
2013-2-16,46,37,23,39,33,19,100,87,74,29.85,29.68,14,1,14,0.01
2013-2-17,61,32,24,24,17,12,85,55,35,30.11,29.84,16,3,16,0.02
2013-2-18,55,39,19,34,25,16,92,60,37,30.23,30.06,12,3,12,0.00
2013-2-19,48,41,33,48,38,27,100,88,59,30.07,29.75,11,2,11,0.22
2013-2-20,57,43,28,31,23,16,91,46,27,29.99,29.87,11,2,11,0.00
2013-2-21,61,43,25,38,25,16,86,52,29,30.14,29.94,8,1,8,0.01
2013-2-22,43,38,36,40,38,36,100,99,80,30.18,29.97,6,1,6,0.39
2013-2-23,43,40,36,43,40,36,100,100,100,30.00,29.69,4,1,4,0.43
2013-2-24,64,51,39,50,40,30,100,72,37,29.90,29.69,12,2,12,0.00
2013-2-25,44,40,34,33,30,27,86,67,59,30.05,29.88,8,2,8,0.00
2013-2-26,43,38,33,43,36,27,100,96,64,29.95,29.46,7,2,7,0.70
2013-2-27,59,48,36,48,42,36,100,81,57,29.68,29.51,13,2,13,0.00
2013-2-28,53,42,33,40,33,28,99,71,48,29.76,29.58,13,3,13,0.00
2013-3-1,50,40,28,36,32,26,94,73,56,29.79,29.72,10,2,10,0.00
2013-3-2,48,39,30,38,33,23,92,80,61,29.80,29.69,8,2,11,0.00
2013-3-3,48,36,26,28,22,17,77,58,42,29.87,29.73,53,4,53,0.00
2013-3-4,55,40,21,29,22,-4,77,51,32,29.99,29.85,9,2,9,0.00
2013-3-5,52,46,38,48,39,26,100,78,50,29.93,29.47,11,2,11,0.38
2013-3-6,50,41,33,43,31,25,100,69,50,29.98,29.47,19,6,19,0.01
2013-3-7,56,41,28,37,31,25,94,69,47,30.12,29.97,11,3,11,0.00
2013-3-8,58,43,27,33,28,22,86,58,36,30.19,30.06,12,3,12,0.00
2013-3-9,65,47,29,42,34,24,88,61,40,30.21,30.09,8,1,8,0.00
2013-3-10,69,53,36,47,40,34,95,65,40,30.17,30.03,11,2,11,0.00
2013-3-11,71,56,40,59,45,30,100,68,50,30.07,29.72,19,4,19,0.07
2013-3-12,70,60,47,70,53,34,100,80,40,29.86,29.61,60,5,60,0.46
2013-3-13,60,45,32,38,31,20,99,61,35,30.02,29.84,19,4,19,0.00
2013-3-14,55,41,28,29,22,17,67,48,31,30.14,30.00,14,3,14,0.00
2013-3-15,66,48,29,44,33,22,84,60,39,30.06,29.76,16,2,16,0.00
2013-3-16,82,67,55,59,51,44,71,57,43,29.77,29.58,16,4,16,0.00
2013-3-17,77,59,46,61,49,43,88,71,50,29.98,29.72,11,2,11,0.00
2013-3-18,46,42,39,45,42,39,100,99,88,30.01,29.71,10,2,10,0.39
2013-3-19,67,52,39,50,37,22,100,66,30,29.92,29.70,14,4,14,0.00
2013-3-20,59,50,43,30,22,14,50,33,25,29.99,29.64,13,3,13,0.00
2013-3-21,49,40,31,30,18,10,61,41,30,29.85,29.64,17,5,17,0.00
2013-3-22,54,39,22,27,20,13,73,48,31,29.95,29.82,11,2,11,0.00
2013-3-23,56,46,38,46,38,26,98,74,49,29.92,29.76,5,1,5,0.01
2013-3-24,44,40,38,44,40,38,100,100,97,29.80,29.41,10,2,10,0.61
2013-3-25,51,42,35,42,33,25,100,75,44,29.75,29.42,19,4,19,0.08
2013-3-26,49,40,29,32,29,24,85,64,50,30.03,29.73,11,3,11,0.00
2013-3-27,54,42,28,35,28,24,89,60,38,30.12,30.02,13,3,13,0.00
2013-3-28,59,43,28,34,27,21,82,54,34,30.16,30.04,14,3,14,0.00
2013-3-29,66,48,28,40,32,24,89,58,33,30.20,30.03,12,2,12,0.00
2013-3-30,68,56,45,52,47,39,100,74,51,30.09,29.92,9,1,9,0.12
2013-3-31,73,58,50,64,55,48,100,90,65,29.93,29.66,19,2,19,0.26
2013-4-1,74,62,53,60,51,41,100,72,41,29.83,29.69,11,2,11,0.02
2013-4-2,66,54,38,43,37,27,91,56,32,30.03,29.82,10,2,10,0.00
2013-4-3,71,54,42,52,30,22,66,41,30,30.14,29.99,24,3,24,0.19
2013-4-4,52,42,36,41,34,24,100,77,41,30.15,29.83,9,3,9,0.74
2013-4-5,67,50,36,54,44,36,100,81,49,29.91,29.76,6,2,8,0.01
2013-4-6,72,55,36,49,42,36,100,67,37,30.10,29.91,8,2,10,0.00
2013-4-7,73,59,42,57,48,2,97,69,47,30.13,29.96,15,3,15,0.00
2013-4-8,81,68,54,65,59,-24,100,74,53,30.04,29.92,14,3,14,0.00
2013-4-9,84,75,72,66,59,57,58,58,53,30.07,29.94,12,2,12,2.69
2013-4-10,80,15,0,64,64,63,74,12,58,29.99,29.82,4,0,4,0.00
2013-4-11,92,72,65,80,66,62,100,83,63,29.86,29.63,14,5,14,0.27
2013-4-12,114,73,62,73,63,44,100,75,37,29.70,29.50,20,6,20,0.53
2013-4-13,79,64,54,54,47,44,69,56,37,29.90,29.70,98,2,98,0.00
2013-4-14,98,76,48,94,64,6,86,68,38,29.96,29.86,103,32,103,0.00
2013-4-15,73,63,57,69,62,57,100,96,85,30.07,29.84,7,1,7,0.11
2013-4-16,82,68,58,73,64,58,100,87,62,30.17,30.04,11,1,12,0.00
2013-4-17,87,72,57,73,66,57,100,83,60,30.12,29.97,8,1,8,0.00
2013-4-18,82,72,64,69,67,64,100,85,62,30.04,29.87,14,3,14,0.00
2013-4-19,81,69,56,74,68,56,100,96,74,29.87,29.60,21,6,21,0.33
2013-4-20,67,55,44,56,42,36,100,64,40,30.13,29.76,11,2,11,0.00
2013-4-21,67,54,41,52,43,37,97,69,50,30.31,30.12,9,2,9,0.00
2013-4-22,68,53,41,45,40,38,92,65,37,30.29,30.09,11,2,11,0.00
2013-4-23,71,59,47,59,52,40,100,78,63,30.14,29.97,9,2,9,0.00
2013-4-24,76,64,51,65,59,51,100,87,63,30.01,29.86,14,3,14,0.00
2013-4-25,73,62,50,63,50,43,100,68,37,30.16,29.90,7,2,7,0.00
2013-4-26,76,60,43,52,45,39,94,62,36,30.30,30.14,8,1,8,0.00
2013-4-27,67,59,56,61,55,50,100,87,69,30.23,30.11,4,0,4,0.04
2013-4-28,58,56,55,58,56,8,100,100,100,30.12,29.91,6,1,6,1.76
2013-4-29,74,63,56,72,62,56,100,97,77,29.92,29.80,6,0,6,0.34
2013-4-30,59,59,59,59,59,59,100,100,100,30.04,29.85,0,0,0,0.00
2013-5-1,61,50,0,61,59,59,100,83,100,30.15,30.04,4,0,4,0.00
2013-5-2,66,60,57,65,60,57,100,100,95,30.17,30.09,7,2,7,0.05
2013-5-3,70,62,54,62,58,51,100,87,72,30.10,29.98,8,2,8,9.07
2013-5-4,66,57,50,58,53,-3,99,87,73,30.01,29.86,15,3,15,0.00
2013-5-5,59,54,10,59,54,10,100,99,96,29.91,29.73,13,3,13,0.41
2013-5-6,73,63,54,68,59,53,100,89,60,29.76,29.68,11,2,50,0.76
2013-5-7,73,60,49,59,54,25,100,86,38,29.82,29.72,9,2,10,0.17
2013-5-8,77,63,55,67,59,55,100,89,64,29.88,29.78,4,1,6,0.01
2013-5-9,85,69,47,70,61,47,100,80,53,29.95,29.86,49,2,49,0.00
2013-5-10,87,72,56,72,65,56,100,82,58,29.94,29.82,12,2,12,0.00
2013-5-11,84,72,63,75,68,63,100,87,64,29.84,29.67,10,2,10,0.22
2013-5-12,77,66,56,63,56,41,100,72,46,29.91,29.70,10,2,10,0.00
2013-5-13,72,58,42,50,43,38,100,61,36,30.04,29.90,11,1,11,0.00
2013-5-14,74,60,41,53,47,41,99,65,41,30.12,29.93,11,2,11,0.00
2013-5-15,90,75,58,73,64,51,93,69,52,29.94,29.80,9,2,9,0.00
2013-5-16,92,75,62,73,67,62,99,76,49,29.90,29.80,8,1,8,0.00
2013-5-17,89,76,63,78,69,-9,100,82,58,29.96,29.87,8,1,8,0.00
2013-5-18,76,70,64,72,69,64,100,95,83,30.01,29.93,4,1,4,0.00
2013-5-19,80,70,66,78,70,66,100,99,85,30.00,29.90,7,2,53,0.44
2013-5-20,84,74,68,79,72,-13,100,96,76,29.99,29.88,5,1,5,0.05
2013-5-21,89,74,65,83,72,65,100,93,75,29.93,29.82,11,1,11,0.00
2013-5-22,87,75,66,78,72,-2,100,90,69,29.89,29.76,12,2,12,0.14
2013-5-23,81,71,65,77,70,65,100,97,82,29.85,29.70,7,1,7,0.43
2013-5-24,76,67,57,68,56,2,100,73,39,30.07,29.73,12,2,12,0.00
2013-5-25,79,63,45,57,51,42,100,66,39,30.18,30.01,8,1,8,0.00
2013-5-26,78,65,55,60,55,48,99,71,48,30.16,30.03,7,1,7,0.01
2013-5-27,85,69,53,69,61,53,100,78,54,30.14,30.01,8,1,8,0.00
2013-5-28,87,75,64,73,69,63,100,82,58,30.11,30.01,13,2,13,0.00
2013-5-29,87,76,64,74,69,64,100,81,59,30.12,30.01,9,2,9,0.00
2013-5-30,88,75,63,75,69,63,100,82,56,30.16,30.03,10,2,10,0.00
2013-5-31,88,77,66,76,72,66,100,86,61,30.11,29.97,8,2,8,0.00
2013-6-1,88,79,68,77,73,68,100,84,63,30.01,29.89,10,2,10,0.00
2013-6-2,85,76,69,77,73,70,100,92,74,29.93,29.77,14,2,14,0.14
2013-6-3,87,75,68,80,73,69,100,95,70,29.84,29.71,5,1,5,0.30
2013-6-4,87,76,67,78,73,67,100,91,73,29.96,29.81,9,1,9,0.07
2013-6-5,81,73,68,78,72,68,100,97,85,29.98,29.85,7,1,7,0.25
2013-6-6,79,72,68,79,72,68,100,100,100,29.87,29.68,8,2,8,1.05
2013-6-7,83,72,68,81,72,53,100,99,89,29.73,29.51,14,2,14,0.57
2013-6-8,86,75,66,81,73,-3,100,93,73,29.96,29.70,6,1,6,0.05
2013-6-9,91,76,66,84,74,66,100,93,68,30.02,29.92,10,1,10,0.12
2013-6-10,86,75,69,81,74,70,100,99,84,29.96,29.77,12,3,12,0.12
2013-6-11,89,78,68,79,73,69,100,86,61,29.87,29.80,10,2,10,0.02
2013-6-12,95,80,65,85,76,65,100,89,67,29.88,29.76,8,1,8,0.00
2013-6-13,96,81,68,85,77,68,100,90,62,29.77,29.53,8,1,10,0.54
2013-6-14,87,74,62,74,67,62,100,80,55,29.91,29.65,8,2,8,0.55
2013-6-15,86,74,59,74,67,59,100,82,61,30.01,29.90,8,1,8,0.00
2013-6-16,89,78,67,78,72,66,100,85,65,30.01,29.88,9,2,9,0.00
2013-6-17,92,77,71,82,75,71,100,94,70,29.92,29.81,10,2,10,0.40
2013-6-18,87,75,70,82,74,71,100,98,83,29.85,29.66,13,2,13,0.14
2013-6-19,87,76,68,79,73,68,100,90,65,29.99,29.77,6,1,6,0.01
2013-6-20,86,75,65,78,72,65,100,90,69,30.11,29.98,8,1,8,0.00
2013-6-21,88,75,62,78,70,28,100,86,63,30.14,30.05,6,1,6,0.00
2013-6-22,90,75,62,79,72,62,100,90,66,30.10,29.98,5,1,5,0.00
2013-6-23,92,78,68,83,76,-27,100,94,73,30.08,29.99,51,1,51,0.28
2013-6-24,90,78,70,84,76,70,100,94,77,30.09,29.97,11,2,11,0.00
2013-6-25,93,81,72,84,78,72,100,91,68,30.02,29.87,8,2,8,0.00
2013-6-26,94,78,70,85,76,71,100,94,70,29.92,29.78,8,1,8,0.04
2013-6-27,92,80,71,86,78,71,100,95,78,29.82,29.60,8,2,8,0.08
2013-6-28,96,80,70,86,76,70,100,92,67,29.65,29.48,11,2,11,3.57
2013-6-29,89,78,71,83,76,71,100,93,71,29.60,29.50,7,2,7,0.00
2013-6-30,87,77,68,83,76,68,100,97,84,29.73,29.57,6,1,6,0.27
2013-7-1,85,75,68,81,74,68,100,98,86,29.86,29.70,9,2,9,0.06
2013-7-2,82,74,72,80,74,72,100,100,95,30.02,29.84,18,3,18,0.13
2013-7-3,82,76,73,82,76,73,100,100,100,30.09,29.99,6,2,9,0.05
2013-7-4,89,78,74,84,77,74,100,96,76,30.11,30.01,10,3,16,0.22
2013-7-5,89,78,73,85,77,74,100,97,81,30.12,30.05,11,2,11,0.12
2013-7-6,88,77,72,84,76,72,100,97,79,30.12,29.99,10,2,12,0.13
2013-7-7,88,79,73,85,78,74,100,99,89,30.06,29.94,7,2,7,0.04
2013-7-8,87,79,72,86,78,72,100,97,81,30.06,29.97,6,1,6,0.20
2013-7-9,92,81,-26,86,79,-30,100,93,70,30.04,29.92,7,1,7,0.00
2013-7-10,117,78,0,84,77,50,100,95,79,30.00,29.82,9,1,9,0.01
2013-7-11,81,75,70,81,75,70,100,100,100,29.85,29.75,4,1,4,0.57
2013-7-12,85,76,70,83,75,70,100,98,89,29.89,29.75,7,1,7,0.01
2013-7-13,82,74,69,82,74,70,100,100,97,29.99,29.88,7,1,7,0.17
2013-7-14,89,78,72,84,77,72,100,96,79,30.16,29.96,11,2,11,0.32
2013-7-15,92,79,70,87,76,70,100,94,75,30.20,30.11,6,1,6,0.00
2013-7-16,97,83,70,88,79,70,100,88,64,30.18,30.08,5,1,5,0.00
2013-7-17,95,79,71,88,78,71,100,97,78,30.12,30.00,8,1,8,0.48
2013-7-18,93,78,71,88,78,-16,100,99,82,30.05,29.93,4,0,4,0.27
2013-7-19,93,81,-28,87,79,-33,100,94,77,29.99,29.86,8,1,8,0.00
2013-7-20,89,80,74,86,79,-24,100,98,85,29.92,29.80,8,2,8,0.00
2013-7-21,91,78,73,85,77,73,100,97,76,29.89,29.78,6,1,6,0.05
2013-7-22,87,78,71,84,77,72,100,97,85,29.87,29.72,9,2,9,0.00
2013-7-23,93,81,72,87,78,72,100,91,71,29.74,29.64,6,1,6,0.00
2013-7-24,96,81,70,87,78,70,100,91,71,29.75,29.62,4,1,7,1.46
2013-7-25,86,76,68,82,74,-8,100,95,79,29.90,29.70,4,1,4,0.00
2013-7-26,86,75,-17,80,69,-20,100,87,13,29.99,29.88,49,1,49,0.19
2013-7-27,79,73,68,79,73,69,100,100,100,29.91,29.80,9,1,9,0.48
2013-7-28,97,77,69,83,75,30,100,95,13,29.88,29.79,9,1,9,0.06
2013-7-29,89,77,68,82,74,-11,100,91,13,30.03,29.88,6,1,6,0.00
2013-7-30,87,78,67,76,73,29,100,85,13,30.10,30.00,6,1,100,0.00
2013-7-31,85,77,72,82,75,19,100,95,75,30.03,29.86,9,1,9,0.18
2013-8-1,90,78,71,86,77,71,100,97,78,29.87,29.75,5,1,5,0.00
2013-8-2,90,79,71,82,77,71,100,92,73,29.91,29.79,4,1,7,0.00
2013-8-3,91,81,73,86,78,73,100,92,72,29.90,29.81,7,1,8,0.00
2013-8-4,90,79,70,82,75,70,100,90,69,29.91,29.80,8,1,8,0.00
2013-8-5,86,76,68,79,73,69,100,91,72,29.95,29.84,9,1,9,0.00
2013-8-6,77,73,68,77,72,68,100,99,90,29.94,29.85,8,2,8,0.58
2013-8-7,88,77,71,81,75,71,100,94,72,29.97,29.89,8,1,8,0.00
2013-8-8,88,79,73,85,78,73,100,97,82,29.94,29.87,4,1,8,0.02
2013-8-9,92,81,74,88,80,74,100,96,81,29.95,29.87,8,2,8,0.00
2013-8-10,95,80,74,90,79,74,100,97,77,29.99,29.91,13,1,13,0.00
2013-8-11,94,80,71,87,78,71,100,95,72,30.00,29.90,6,1,6,0.00
2013-8-12,94,81,72,87,79,72,100,93,71,29.94,29.76,4,1,5,0.00
2013-8-13,91,79,72,85,78,71,100,96,76,29.84,29.67,5,1,9,0.05
2013-8-14,82,74,65,74,71,65,100,91,70,29.95,29.73,6,1,6,0.06
2013-8-15,78,69,61,68,65,61,100,89,69,30.03,29.94,8,1,8,0.00
2013-8-16,73,66,60,70,65,60,100,97,81,30.03,29.95,6,1,6,0.00
2013-8-17,67,64,61,67,64,61,100,100,100,30.06,29.99,6,1,6,0.57
2013-8-18,83,72,65,81,72,65,100,99,92,30.09,30.00,4,0,4,0.07
2013-8-19,79,72,68,79,72,69,100,100,100,30.05,29.96,4,0,4,0.38
2013-8-20,83,74,65,81,73,-17,100,98,89,30.06,29.98,4,0,4,0.00
2013-8-21,85,76,70,85,76,71,100,100,95,30.09,29.98,5,0,5,0.00
2013-8-22,90,79,70,84,77,70,100,93,75,30.03,29.88,4,1,4,0.00
2013-8-23,91,76,69,84,75,69,100,97,72,29.95,29.84,8,1,8,0.05
2013-8-24,85,72,64,75,69,64,100,90,64,30.16,29.96,8,2,8,0.00
2013-8-25,85,70,59,74,67,59,100,90,66,30.26,30.15,7,1,7,0.00
2013-8-26,85,70,56,74,67,56,100,90,65,30.19,29.99,4,1,4,0.00
2013-8-27,92,77,64,82,74,64,100,92,69,30.01,29.86,5,1,5,0.00
2013-8-28,92,80,69,84,77,70,100,92,71,29.89,29.79,6,1,6,0.00
2013-8-29,95,83,74,86,80,74,100,92,71,29.87,29.76,5,1,5,0.00
2013-8-30,90,79,70,79,75,70,100,89,62,29.93,29.81,6,1,6,0.00
2013-8-31,91,78,68,84,77,69,100,95,76,29.84,29.74,8,1,8,0.00
2013-9-1,92,77,69,86,75,69,100,95,74,29.78,29.67,14,2,14,0.39
2013-9-2,89,78,70,84,76,70,100,96,80,29.78,29.68,4,0,4,0.01
2013-9-3,92,80,71,89,77,71,100,91,69,29.84,29.68,5,1,51,0.00
2013-9-4,88,76,64,78,72,-27,100,89,67,29.97,29.84,6,1,6,0.00
2013-9-5,90,75,64,80,71,64,100,88,58,29.99,29.92,4,1,4,0.00
2013-9-6,86,74,64,74,69,-27,100,86,65,30.07,29.94,5,1,5,0.00
2013-9-7,86,72,61,77,69,61,100,91,69,30.01,29.85,7,1,7,0.00
2013-9-8,90,76,64,81,72,-13,100,88,63,29.88,29.79,50,1,50,0.00
2013-9-9,92,78,66,82,73,66,100,88,62,30.01,29.86,7,1,7,0.00
2013-9-10,92,78,66,86,74,66,100,90,68,30.11,30.01,5,1,5,0.00
2013-9-11,92,79,66,81,74,66,100,87,63,30.09,29.95,8,1,8,0.00
2013-9-12,94,80,71,82,76,71,100,90,63,29.96,29.71,7,1,7,0.00
2013-9-13,88,77,68,75,69,59,100,79,56,29.78,29.65,8,2,8,0.00
2013-9-14,79,68,58,66,60,54,100,79,62,29.98,29.78,6,2,6,0.00
2013-9-15,82,68,55,74,66,55,100,93,73,30.09,29.97,4,1,4,0.00
2013-9-16,90,76,65,79,70,65,100,85,60,30.03,29.91,4,1,50,0.00
2013-9-17,80,71,63,70,64,62,100,80,60,30.17,30.03,11,2,11,0.00
2013-9-18,78,67,58,65,61,58,100,83,62,30.17,30.02,5,1,8,0.00
2013-9-19,80,68,59,72,65,59,100,91,71,30.06,29.95,4,0,5,0.00
2013-9-20,90,74,62,78,70,-16,100,91,38,29.96,29.78,6,1,6,0.00
2013-9-21,77,71,64,77,71,64,100,100,99,29.81,29.58,6,2,8,1.03
2013-9-22,80,68,58,68,64,58,100,88,64,29.78,29.57,8,2,8,0.08
2013-9-23,76,65,56,66,62,56,100,90,67,29.93,29.78,7,1,7,0.00
2013-9-24,80,67,58,70,64,58,100,92,70,29.95,29.80,6,1,6,0.00
2013-9-25,73,65,60,71,64,60,100,98,82,29.81,29.73,4,0,4,0.13
2013-9-26,79,66,56,70,63,56,100,90,66,29.90,29.74,4,1,4,0.00
2013-9-27,78,64,54,69,60,54,100,89,65,30.05,29.90,6,1,8,0.00
2013-9-28,74,62,52,65,58,52,100,90,68,30.12,30.02,8,1,8,0.00
2013-9-29,76,63,54,67,60,54,100,92,71,30.04,29.89,6,1,6,0.00
2013-9-30,78,63,51,68,59,51,100,89,63,29.97,29.85,8,0,8,0.00
2013-10-1,83,68,54,72,64,54,100,89,64,30.00,29.90,5,1,5,0.00
2013-10-2,84,69,56,74,65,56,100,90,65,30.02,29.93,4,0,4,0.00
2013-10-3,86,71,61,76,67,61,100,88,60,30.00,29.92,8,1,8,0.00
2013-10-4,87,72,60,76,69,60,100,90,64,30.01,29.93,7,0,7,0.00
2013-10-5,88,73,61,79,70,2,100,90,66,30.00,29.89,6,0,6,0.00
2013-10-6,85,74,63,76,70,63,100,91,67,29.92,29.76,7,2,10,0.00
2013-10-7,80,72,64,79,72,60,100,98,85,29.87,29.67,9,2,9,0.45
2013-10-8,71,63,58,60,56,0,89,79,65,30.06,29.86,27,2,27,0.00
2013-10-9,73,61,51,61,55,50,99,81,63,30.07,29.97,8,2,8,0.00
2013-10-10,74,64,53,69,62,53,100,92,83,29.98,29.82,7,2,7,0.00
2013-10-11,81,71,60,69,66,60,100,87,65,29.85,29.78,5,1,5,0.00
2013-10-12,77,68,59,72,66,59,100,95,80,29.95,29.82,4,1,5,0.00
2013-10-13,73,66,63,72,66,63,100,100,96,30.07,29.94,4,1,4,0.02
2013-10-14,72,65,60,71,65,60,100,99,93,30.10,30.01,5,2,5,0.06
2013-10-15,77,65,57,65,61,57,100,89,62,30.06,29.90,6,1,6,0.00
2013-10-16,76,64,52,70,62,52,100,94,76,29.94,29.81,8,0,8,0.00
2013-10-17,73,66,61,70,66,61,100,99,88,29.84,29.71,9,1,9,0.07
2013-10-18,73,64,55,67,61,55,100,92,67,29.90,29.75,6,1,6,0.00
2013-10-19,65,60,53,65,60,53,100,100,97,29.83,29.70,7,0,7,0.01
2013-10-20,67,54,44,54,49,20,100,86,38,29.96,29.77,6,1,27,0.00
2013-10-21,71,54,39,60,51,39,100,90,65,30.00,29.84,8,1,8,0.00
2013-10-22,73,61,54,66,59,54,100,94,70,29.87,29.66,5,1,5,0.00
2013-10-23,69,58,46,61,50,36,100,77,48,29.88,29.58,13,2,13,0.00
2013-10-24,62,48,34,47,40,34,100,76,53,30.02,29.89,10,1,10,0.00
2013-10-25,57,46,34,45,38,31,93,72,50,30.23,30.01,8,2,8,0.00
2013-10-26,59,44,28,41,36,28,100,77,49,30.22,29.92,11,1,11,0.00
2013-10-27,70,55,39,55,48,39,100,79,55,29.98,29.89,6,1,6,0.00
2013-10-28,70,56,46,61,54,46,100,93,72,30.11,29.96,6,0,6,0.00
2013-10-29,76,60,50,65,57,50,100,90,64,30.19,30.09,8,1,8,0.00
2013-10-30,79,63,51,67,60,20,100,89,65,30.13,30.00,9,1,9,0.00
2013-10-31,75,65,54,74,62,18,100,93,78,30.03,29.75,13,2,13,0.19
2013-11-1,74,66,59,70,65,-44,100,99,93,29.75,29.54,53,4,53,0.64
2013-11-2,72,59,49,64,54,45,100,86,51,29.83,29.58,9,1,9,0.01
2013-11-3,64,51,40,51,43,38,100,76,51,30.19,29.83,9,1,9,0.00
2013-11-4,62,47,36,47,39,35,100,75,44,30.36,30.19,8,1,8,0.00
2013-11-5,59,48,35,52,43,34,100,86,69,30.40,30.26,5,1,5,0.00
2013-11-6,72,59,50,62,55,50,100,90,67,30.27,29.96,6,1,6,0.00
2013-11-7,72,55,43,68,51,37,100,87,56,29.99,29.80,11,2,11,0.00
2013-11-8,60,46,33,42,35,31,99,67,38,30.16,29.99,8,1,8,0.00
2013-11-9,62,46,29,42,36,29,100,72,43,30.22,30.04,11,1,11,0.00
2013-11-10,74,56,38,50,42,34,100,63,36,30.08,29.95,12,2,12,0.00
2013-11-11,64,49,33,39,34,27,89,58,37,30.19,29.98,8,1,8,0.00
2013-11-12,69,45,31,48,37,10,100,76,42,30.30,29.89,14,3,14,0.05
2013-11-13,49,35,23,27,23,18,90,64,40,30.38,30.28,9,2,9,0.01
2013-11-14,60,39,24,37,27,23,100,67,32,30.30,30.16,8,1,49,0.00
2013-11-15,62,47,29,51,40,26,100,80,52,30.19,30.03,5,1,5,0.07
2013-11-16,67,56,49,64,55,49,100,98,89,30.11,30.04,4,0,4,0.00
2013-11-17,71,60,50,70,60,50,100,99,87,30.06,29.74,12,2,12,0.08
2013-11-18,78,66,52,71,57,38,100,74,45,29.85,29.68,15,3,15,0.02
2013-11-19,59,48,39,38,33,30,75,56,42,30.11,29.85,11,2,11,0.00
2013-11-20,57,45,35,41,35,30,84,69,53,30.29,30.10,8,2,8,0.00
2013-11-21,59,50,43,50,44,36,87,79,70,30.33,30.21,7,2,7,0.00
2013-11-22,69,59,51,65,56,48,100,92,82,30.24,29.96,9,2,9,0.00
2013-11-23,62,55,42,60,49,25,100,81,47,30.05,29.90,9,2,9,0.00
2013-11-24,44,35,24,27,16,8,58,46,29,30.35,30.05,13,3,13,0.00
2013-11-25,46,34,19,24,15,9,81,49,31,30.38,30.18,8,1,8,0.00
2013-11-26,44,38,32,44,34,18,100,90,43,30.18,29.45,11,2,11,1.74
2013-11-27,46,40,29,46,36,20,100,87,65,30.03,29.38,16,4,16,0.20
2013-11-28,48,33,20,31,24,19,100,72,45,30.30,30.03,6,1,7,0.00
2013-11-29,56,38,24,37,29,24,100,74,42,30.43,30.29,8,1,8,0.00
2013-11-30,50,36,28,34,28,25,91,74,48,30.47,30.20,7,1,7,0.00
2013-12-1,61,41,27,45,36,26,100,82,52,30.21,29.87,8,1,8,0.00
2013-12-2,61,45,30,48,40,30,100,84,58,29.87,29.67,6,1,6,0.00
2013-12-3,63,52,41,60,51,41,100,96,80,29.82,29.71,8,1,8,0.05
2013-12-4,63,57,52,63,57,52,100,100,100,29.93,29.80,6,1,6,0.12
2013-12-5,67,63,60,67,64,60,100,100,100,29.97,29.87,13,3,13,0.13
2013-12-6,78,71,66,73,69,66,100,96,81,29.91,29.81,25,6,25,0.00
2013-12-7,71,56,46,71,54,44,100,95,84,30.25,29.84,14,3,14,0.08
2013-12-8,46,38,34,44,37,34,100,97,86,30.25,30.11,7,2,7,0.02
2013-12-9,45,40,35,45,40,35,100,100,100,30.11,29.88,6,1,6,0.43
2013-12-10,55,45,30,54,42,29,100,91,65,30.16,29.74,14,2,14,0.09
2013-12-11,52,36,23,38,30,23,100,80,46,30.28,30.12,8,1,8,0.00
2013-12-12,50,36,26,33,27,22,100,73,38,30.25,30.11,8,2,8,0.00
2013-12-13,54,37,22,36,29,22,100,75,44,30.21,30.09,10,1,10,0.00
2013-12-14,47,40,38,46,39,35,100,95,86,30.10,29.63,10,2,10,0.58
2013-12-15,55,44,34,50,39,30,100,85,62,29.94,29.58,10,2,10,0.01
2013-12-16,61,43,28,42,36,28,100,78,48,30.01,29.91,8,2,8,0.00
2013-12-17,64,49,35,45,39,32,96,69,48,29.97,29.75,13,3,13,0.00
2013-12-18,54,43,31,33,26,22,83,55,30,30.12,29.88,9,2,10,0.00
2013-12-19,66,46,27,35,31,25,96,60,28,30.15,30.05,11,2,11,0.00
2013-12-20,67,52,39,57,47,32,100,83,62,30.08,29.98,11,2,11,0.00
2013-12-21,73,62,51,69,61,51,100,98,86,29.99,29.85,16,3,16,0.00
2013-12-22,73,68,63,73,68,63,100,100,100,29.92,29.83,17,5,17,0.86
2013-12-23,66,58,44,65,58,41,100,100,91,30.02,29.84,13,3,13,0.73
2013-12-24,49,40,29,42,32,19,99,74,50,30.29,30.00,13,3,13,0.00
2013-12-25,43,31,22,27,20,17,86,64,40,30.37,30.21,8,1,8,0.00
2013-12-26,54,38,29,36,29,26,94,72,44,30.21,30.08,6,1,6,0.00
2013-12-27,55,38,25,37,28,25,100,73,41,30.30,30.19,5,1,5,0.00
2013-12-28,59,41,25,44,34,25,100,79,46,30.24,29.96,5,1,5,0.01
2013-12-29,57,46,40,57,46,37,100,100,95,29.96,29.62,10,2,10,1.09
2013-12-30,55,44,35,50,42,35,100,95,76,29.96,29.78,6,0,6,0.00
2013-12-31,53,42,32,44,36,30,100,82,46,30.20,29.93,10,1,10,0.00
2014-1-1,52,39,29,38,33,29,100,83,51,30.23,29.97,10,1,10,0.00
2014-1-2,48,43,36,48,42,30,100,99,80,29.98,29.49,16,2,16,0.26